Topeka Forbes, KS

3:28 AM CST on November 18, 2017 (GMT -0600)
Forbes

Weather History for KFOE - March, 2013

Change the Weather History Date:

Friday, March 22, 2013

  Actual Average Record
Temperature  
Mean Temperature 31 °F -  
Max Temperature 35 °F 60 °F 84 °F (1988)
Min Temperature 28 °F 33 °F 8 °F (2002)
Degree Days  
Heating Degree Days 34    
Moisture  
Dew Point 29 °F    
Average Humidity 92    
Maximum Humidity 100    
Minimum Humidity 85    
Precipitation  
Precipitation 0.00 in - - ()
Sea Level Pressure  
Sea Level Pressure 29.97 in    
Wind  
Wind Speed 6 mph (ENE)    
Max Wind Speed 9 mph    
Max Gust Speed -    
Visibility 4 miles    
Events      
Averages and records for this station are not official NWS values.
T = Trace of Precipitation, MM = Missing Value Source: NWS Daily Summary

Daily Weather History Graph

Daily Weather History Graph

Search for Another Location

Airport or City:

Trip Planner

Search our weather history database for the weather conditions in past years. The results will help you decide how hot, cold, wet, or windy it might be!

Date:

Astronomy

Mar. 22, 2013 Rise Set
Actual Time 7:22 AM CDT 7:36 PM CDT
Civil Twilight 6:55 AM CDT 8:03 PM CDT
Nautical Twilight 6:24 AM CDT 8:34 PM CDT
Astronomical Twilight 5:53 AM CDT 9:06 PM CDT
Moon 3:07 PM CDT (3/22) 4:21 AM CDT (3/22)
Length of Visible Light 13h 07m
Length of Day
12h 14m
Waxing Gibbous, 77% of the Moon is Illuminated
Mar 22
Waxing Gibbous
Mar 27
Full
Apr 2
Last Quarter
Apr 10
New
Apr 18
First Quarter

Hourly Weather History & Observations

Time (CDT) Temp. Windchill Dew Point Humidity Pressure Visibility Wind Dir Wind Speed Gust Speed Precip Events Conditions
12:53 AM 28.9 °F 20.4 °F 27.0 °F 92% 29.96 in 3.0 mi NE 9.2 mph - N/A   Overcast
1:06 AM 28.4 °F 21.2 °F 26.6 °F 93% 29.92 in 2.5 mi ENE 6.9 mph - N/A   Overcast
1:53 AM 28.9 °F 21.9 °F 27.0 °F 92% 29.96 in 2.5 mi ENE 6.9 mph - N/A   Overcast
2:53 AM 28.9 °F 22.8 °F 28.0 °F 96% 29.98 in 2.5 mi NNE 5.8 mph - N/A   Overcast
3:53 AM 28.9 °F 22.8 °F 28.0 °F 96% 29.98 in 1.8 mi NNE 5.8 mph - N/A   Overcast
4:14 AM 28.4 °F 23.3 °F 28.4 °F 100% 29.94 in 2.0 mi NE 4.6 mph - N/A   Overcast
4:53 AM 28.9 °F 21.9 °F 28.0 °F 96% 29.96 in 2.5 mi NE 6.9 mph - N/A   Overcast
5:01 AM 28.4 °F 22.2 °F 28.4 °F 100% 29.93 in 3.0 mi NE 5.8 mph - N/A   Overcast
5:40 AM 30.2 °F 25.4 °F 28.4 °F 93% 29.94 in 2.5 mi NE 4.6 mph - N/A   Overcast
5:53 AM 30.0 °F 24.1 °F 28.0 °F 92% 29.97 in 3.0 mi NE 5.8 mph - N/A   Overcast
6:09 AM 30.2 °F 23.4 °F 28.4 °F 93% 29.94 in 2.5 mi ENE 6.9 mph - N/A   Overcast
6:53 AM 30.0 °F 23.2 °F 28.9 °F 96% 29.98 in 2.5 mi ENE 6.9 mph - N/A   Overcast
7:50 AM 30.2 °F 24.3 °F 28.4 °F 93% 29.96 in 1.5 mi East 5.8 mph - N/A   Overcast
7:53 AM 30.0 °F 23.2 °F 28.9 °F 96% 29.99 in 1.5 mi East 6.9 mph - N/A   Overcast
8:43 AM 30.2 °F 21.9 °F 28.4 °F 93% 29.94 in 2.0 mi East 9.2 mph - N/A   Overcast
8:53 AM 30.0 °F 21.7 °F 28.0 °F 92% 29.97 in 2.5 mi East 9.2 mph - N/A   Overcast
9:09 AM 30.2 °F 24.3 °F 28.4 °F 93% 29.95 in 3.0 mi East 5.8 mph - N/A   Overcast
9:46 AM 30.2 °F 24.3 °F 28.4 °F 93% 29.96 in 4.0 mi East 5.8 mph - N/A   Overcast
9:53 AM 30.0 °F 24.1 °F 28.0 °F 92% 29.99 in 4.0 mi ENE 5.8 mph - N/A   Overcast
10:53 AM 30.9 °F 26.2 °F 28.9 °F 92% 29.98 in 4.0 mi East 4.6 mph - N/A   Overcast
11:53 AM 30.9 °F - 28.9 °F 92% 30.01 in 3.0 mi Calm Calm - N/A   Overcast
12:00 PM 30.2 °F - 30.2 °F 100% 29.98 in 2.5 mi Calm Calm - N/A   Overcast
12:53 PM 32.0 °F 28.7 °F 30.0 °F 92% 30.01 in 2.0 mi North 3.5 mph - N/A   Overcast
1:45 PM 33.8 °F 29.6 °F 30.2 °F 87% 29.94 in 4.0 mi NE 4.6 mph - N/A   Overcast
1:53 PM 33.1 °F 28.7 °F 30.9 °F 92% 29.98 in 5.0 mi NE 4.6 mph - N/A   Overcast
2:53 PM 34.0 °F 31.0 °F 30.0 °F 85% 29.97 in 8.0 mi ENE 3.5 mph - N/A   Overcast
3:53 PM 34.0 °F 31.0 °F 30.0 °F 85% 29.97 in 8.0 mi East 3.5 mph - N/A   Overcast
4:53 PM 34.0 °F 28.0 °F 30.9 °F 89% 29.96 in 5.0 mi East 6.9 mph - N/A   Overcast
5:53 PM 34.0 °F 28.0 °F 30.9 °F 89% 29.98 in 6.0 mi ENE 6.9 mph - N/A   Overcast
6:53 PM 34.0 °F 28.0 °F 30.9 °F 89% 29.99 in 4.0 mi ENE 6.9 mph - N/A   Overcast
7:48 PM 33.8 °F 28.6 °F 30.2 °F 87% 29.96 in 6.0 mi ENE 5.8 mph - N/A   Overcast
7:53 PM 34.0 °F 28.8 °F 30.9 °F 89% 29.99 in 6.0 mi ENE 5.8 mph - N/A   Overcast
8:53 PM 33.1 °F 27.7 °F 30.0 °F 89% 30.00 in 6.0 mi East 5.8 mph - N/A   Overcast
9:27 PM 33.8 °F 26.4 °F 30.2 °F 87% 29.97 in 6.0 mi East 9.2 mph - N/A   Overcast
9:53 PM 33.1 °F 27.7 °F 30.0 °F 89% 30.02 in 5.0 mi NE 5.8 mph - N/A   Overcast
10:53 PM 33.1 °F 27.7 °F 30.0 °F 89% 30.02 in 5.0 mi East 5.8 mph - N/A   Overcast
11:27 PM 33.8 °F 29.6 °F 30.2 °F 87% 29.99 in 5.0 mi ENE 4.6 mph - N/A   Overcast
11:34 PM 33.8 °F 30.8 °F 30.2 °F 87% 29.99 in 5.0 mi NE 3.5 mph - N/A   Overcast
11:49 PM 33.8 °F 30.8 °F 30.2 °F 87% 30.00 in 5.0 mi NNE 3.5 mph - N/A   Overcast
11:53 PM 33.1 °F 30.0 °F 30.0 °F 89% 30.03 in 5.0 mi NNE 3.5 mph - N/A   Overcast